Home > Weather > Ohrid > Past weeks

Flag for Macedonia, Republic of Past Weather in Ohrid, Macedonia, Republic of — Yesterday and Last 2 Weeks

Now
54 °F

Scattered clouds.


Feels Like: 53 °F
Forecast: 49 / 72 °F
Wind: 3 mph from West

Location: Ohrid Airport

Current Time: May 30, 2016 at 7:05:50 AM

Latest Report: May 30, 2016 at 6:30 AM


Visibility: N/A

Pressure: 29.98 "Hg (27.58 "Hg at 696m altitude)

Humidity: 88%

Dew Point: 50 °F

Location of OhridLocation

Past Weather in Ohrid — Graph

°F

Ohrid Temperature Yesterday

Maximum temperature yesterday: 77 °F (at 2:30 PM)
Minimum temperature yesterday: 52 °F (at 5:00 AM)
Average temperature yesterday: 66 °F

High & Low Weather Summary for the Past Weeks

 TemperatureHumidityPressure
High81 °F (May 28, 6:00 PM)93% (May 17, 4:30 AM)30.12 "Hg (May 17, 4:30 AM)
Low41 °F (May 17, 4:30 AM)24% (May 28, 6:30 PM)29.80 "Hg (May 21, 2:30 AM)
Average59 °F62%29.99 "Hg
* Reported May 15 5:00 AM — May 30 5:30 AM, Ohrid, Weather by CustomWeather, © 2016

Note: Actual official high and low records may vary slightly from our data, if they occured in-between our weather recording intervals... More about our weather records

Advertising

Ohrid Weather History for the Previous 24 Hours

Scroll right to see more
 ConditionsComfort  
Time TempWeatherWind HumidityBarometerVisibility
5:30 AM
Mon, May 30
52 °FPassing clouds.3 mph82%29.98 "HgN/A
5:00 AM52 °FPassing clouds.3 mph82%29.98 "HgN/A
3:00 PM
Sun, May 29
77 °FScattered clouds.9 mph47%29.98 "HgN/A
2:30 PM77 °FScattered clouds.8 mph47%29.98 "HgN/A
2:00 PM75 °FPassing clouds.6 mph47%29.98 "HgN/A
1:30 PM75 °FSunny.3 mph50%29.98 "Hg10 mi
1:00 PM73 °FSunny.5 mph57%29.98 "Hg10 mi
12:30 PM70 °FScattered clouds.5 mph64%29.98 "HgN/A
12:00 PM72 °FScattered clouds.5 mph61%29.98 "HgN/A
11:30 AM70 °FPassing clouds.5 mph60%30.01 "HgN/A
11:00 AM70 °FPassing clouds.6 mph64%30.01 "HgN/A
10:30 AM66 °FScattered clouds.3 mph68%30.01 "HgN/A
10:00 AM64 °FScattered clouds.6 mph73%30.01 "HgN/A
9:30 AM66 °FScattered clouds.6 mph73%30.01 "HgN/A
9:00 AM66 °FScattered clouds.2 mph68%30.01 "HgN/A
8:30 AM64 °FSunny.2 mph73%30.01 "Hg10 mi
8:00 AM63 °FSunny.No wind83%30.01 "Hg10 mi
7:30 AM61 °FPassing clouds.1 mph83%30.01 "HgN/A
7:00 AM57 °FPassing clouds.No wind82%30.01 "HgN/A
Weather by CustomWeather, © 2016

See weather overviewHow to use our weather pages